Theta_e
317 319 321 322 322 323 323 324 324 325 325 326 326 326 326 326 326 327 328 328 328 328 328 327 327 326 325 325 324 323 321 320 319 318 316 315 313 311 310 310 310 309 309 308 307 306 304 303 302 299 297 295 294 292 291 290 290 289 289 288 287 286 288 291 293 292 291 290 288 287 287 286 286 286 285 285 285 285 285 285 284 284 284 284 285
315 317 318 320 321 322 322 323 323 324 324 325 325 325 325 325 326 327 327 328 328 328 328 327 326 325 325 325 324 322 321 320 319 317 316 314 311 309 309 309 308 307 307 306 305 303 301 299 297 295 294 293 291 290 290 289 289 289 288 287 287 286 286 288 290 291 291 290 288 287 286 286 286 286 285 285 285 284 284 284 284 284 284 284 284
312 315 317 318 319 320 321 322 323 323 323 324 324 325 325 325 326 326 327 327 328 327 327 327 326 325 325 325 323 322 320 320 318 316 315 313 310 309 309 308 307 306 306 305 302 301 299 296 295 293 292 291 290 289 289 289 289 288 287 287 286 286 286 286 287 289 290 289 288 287 286 285 285 285 285 284 284 284 284 284 284 284 284 284 284
310 312 314 316 318 319 320 321 322 322 323 323 324 324 325 325 325 326 327 327 327 327 326 326 326 325 325 323 322 321 320 319 317 316 315 312 309 309 309 308 306 305 305 303 301 300 298 296 294 292 291 290 289 289 289 289 288 287 287 287 286 286 286 285 286 287 288 288 288 287 286 285 285 285 285 285 284 284 284 284 284 284 284 284 284
308 309 312 314 316 317 319 320 321 321 322 323 323 324 324 325 325 325 326 326 326 325 325 324 324 325 324 322 321 321 319 318 316 315 313 311 308 307 307 307 305 304 303 302 301 298 295 293 292 291 290 290 289 289 289 288 287 287 287 286 286 286 285 285 285 285 286 288 288 287 286 286 286 285 285 285 284 284 284 284 284 284 284 284 284
308 309 310 311 313 315 317 319 320 321 321 322 322 323 323 324 324 324 324 325 324 324 323 323 323 324 323 321 321 321 319 317 316 314 312 310 307 305 305 305 304 303 303 302 299 295 292 292 291 290 290 290 290 289 288 288 287 287 287 286 286 286 285 285 284 284 285 287 287 287 287 286 286 286 285 284 284 284 285 284 284 284 284 284 284
309 308 308 309 311 314 316 317 319 320 320 321 322 322 323 323 323 323 323 323 323 322 321 321 322 324 323 320 320 319 318 316 315 313 311 309 306 304 304 304 303 302 302 299 295 292 291 291 290 290 290 290 290 289 288 287 287 287 286 286 286 285 285 285 285 284 285 286 287 287 286 286 286 286 285 284 284 284 284 284 283 284 284 284 283
308 307 308 309 311 312 314 316 318 319 320 320 320 321 321 322 322 322 322 321 321 322 321 320 321 322 321 319 319 318 316 315 313 311 310 308 306 304 303 303 302 301 298 294 292 291 290 290 290 290 290 289 289 288 287 287 287 286 286 286 285 285 285 284 284 285 286 286 286 286 286 286 286 285 284 284 284 284 283 283 283 283 283 283 283
306 307 308 309 311 312 314 315 317 318 319 319 320 320 320 320 320 320 320 320 320 320 320 320 320 320 319 317 317 316 314 313 311 309 309 308 306 305 304 302 300 297 294 292 291 290 289 289 289 289 289 288 287 287 287 287 287 286 286 286 285 285 285 284 284 285 286 286 286 286 285 285 285 284 284 284 283 283 283 282 282 282 282 282 282
305 306 308 310 311 313 314 315 316 317 318 318 318 319 318 318 318 317 317 318 317 317 318 319 320 320 318 316 314 313 312 311 310 309 308 308 307 306 304 300 296 293 292 291 290 289 289 289 289 288 287 287 287 287 287 286 286 286 286 285 285 285 285 284 284 285 285 285 285 285 285 285 284 284 283 283 283 282 282 282 282 282 281 281 281
306 306 308 310 311 313 314 314 315 315 316 316 316 316 316 316 316 315 315 315 315 316 317 317 318 318 317 315 312 311 310 310 309 309 308 308 308 307 303 297 293 292 291 290 289 288 289 288 288 287 286 286 286 286 286 286 286 286 285 285 285 285 285 284 283 283 284 285 285 284 284 284 283 283 283 282 282 282 281 281 281 281 281 281 281
307 307 308 309 311 312 313 314 314 313 313 313 314 314 314 314 313 313 313 313 314 315 317 317 316 314 313 312 310 309 308 308 308 308 307 308 308 305 299 293 292 291 290 290 289 289 288 288 287 287 286 286 286 286 286 286 285 285 284 285 285 285 284 283 282 283 283 283 283 283 283 283 283 283 282 282 281 281 280 280 280 280 280 280 280
308 307 308 309 311 312 312 313 312 312 312 312 312 312 311 311 311 311 312 313 314 314 315 314 313 311 310 310 308 307 307 306 307 307 307 307 305 301 295 292 292 291 290 290 289 289 289 288 287 286 286 285 285 285 285 285 285 284 284 284 284 284 284 283 283 282 282 282 282 282 282 282 282 282 282 281 280 280 280 280 280 279 279 279 279
308 308 308 309 310 311 311 311 311 311 311 311 310 310 309 309 310 310 311 311 312 312 311 310 310 309 308 308 307 306 306 306 306 306 306 306 302 296 293 292 291 290 290 290 290 289 289 288 287 286 286 285 285 285 285 285 285 284 284 284 284 283 283 283 282 281 281 281 282 282 282 281 281 281 281 280 279 279 279 279 279 279 278 278 278
308 308 309 309 309 310 310 309 309 310 310 310 309 308 308 308 308 308 308 309 310 310 310 309 308 307 307 306 305 305 305 306 306 305 304 302 297 293 292 291 290 289 289 289 289 289 288 288 287 286 286 286 285 285 285 285 285 284 284 284 283 282 282 282 281 280 280 281 281 281 281 280 280 279 279 279 279 278 278 278 278 278 278 277 277
308 308 308 308 309 310 309 309 308 308 308 308 307 307 307 307 307 308 308 308 308 308 309 308 307 306 305 304 302 302 303 305 305 303 300 297 293 291 291 290 289 289 289 289 288 288 287 287 286 286 286 286 285 285 285 285 285 284 284 283 282 282 281 281 280 280 280 280 280 280 280 280 279 279 278 278 277 277 277 277 277 277 277 277 277
307 307 307 308 309 309 309 309 308 308 308 307 307 307 307 307 307 308 307 307 307 307 307 306 304 303 303 301 299 299 300 301 301 298 295 293 292 291 290 289 289 288 288 288 287 287 286 286 285 285 285 285 285 285 285 285 285 284 283 282 282 281 280 280 280 280 279 279 279 280 280 279 279 279 278 278 277 276 276 276 277 277 276 276 277
304 305 306 307 308 308 309 309 309 309 308 308 307 307 307 307 307 307 306 306 306 305 303 301 300 300 300 298 297 297 298 297 296 294 293 292 291 290 289 289 288 288 287 287 286 286 285 285 285 285 285 285 285 285 285 284 284 283 282 282 281 280 280 280 280 280 279 279 280 280 280 279 279 279 278 278 277 276 276 276 276 275 275 275 275
302 303 305 306 306 307 307 307 307 307 307 307 307 306 305 305 305 305 304 304 304 302 300 298 297 297 297 296 295 295 295 294 294 293 292 291 290 289 289 288 288 287 287 286 285 285 285 284 284 285 285 285 285 285 284 284 284 283 282 281 280 280 280 280 280 280 280 280 280 279 279 279 279 279 278 278 277 276 275 275 275 274 274 274 274
300 302 303 304 305 305 306 305 305 305 305 306 305 304 303 303 303 302 302 301 301 300 298 297 296 295 294 294 293 293 293 293 292 291 290 289 289 289 289 288 288 287 287 286 285 284 284 284 284 284 285 285 285 284 284 284 283 282 282 281 280 280 280 280 280 280 280 280 279 279 279 279 278 278 278 277 277 275 274 274 273 273 273 273 273
298 300 301 302 303 303 304 304 304 304 304 304 303 302 301 301 301 301 300 299 297 297 295 294 293 293 292 292 291 291 291 291 290 290 289 289 288 288 288 288 289 288 287 286 285 285 285 285 285 285 286 285 285 284 284 283 282 282 281 281 280 280 280 280 280 280 280 279 278 278 278 278 278 277 277 277 275 274 273 273 272 272 272 272 272
297 298 300 301 302 302 302 303 303 302 302 302 302 301 300 299 300 299 298 296 295 294 292 291 291 290 290 290 290 290 290 290 289 288 288 288 288 288 288 288 288 288 287 286 286 286 286 286 286 286 286 285 284 284 283 283 282 281 281 280 280 279 280 280 280 279 279 278 278 277 277 277 277 277 277 275 274 272 272 272 271 270 271 271 271
297 297 299 299 300 300 300 300 301 301 301 301 301 300 299 298 297 296 295 294 293 291 290 289 289 289 288 288 289 289 289 289 288 288 288 288 288 287 287 287 287 287 287 287 286 286 286 286 287 287 286 284 284 283 282 282 281 281 280 279 279 279 279 279 279 279 278 277 277 277 277 276 276 276 275 274 272 271 271 270 270 270 270 270 270
297 297 297 298 298 298 298 298 298 298 298 298 298 297 296 296 295 294 293 292 291 289 288 288 288 287 287 287 287 288 288 288 288 288 288 287 287 287 286 286 286 286 286 286 286 286 286 287 288 287 285 284 283 282 282 281 281 280 279 279 279 279 279 279 278 278 277 277 276 276 276 276 275 274 273 272 271 270 270 270 270 270 269 269 269
297 297 297 297 297 297 297 296 296 296 296 296 295 294 294 293 292 291 291 290 289 288 287 287 286 286 286 287 287 287 287 287 287 287 287 287 286 286 285 285 285 285 285 285 285 286 286 287 287 285 283 283 282 281 281 281 280 279 278 278 278 279 278 278 278 277 276 276 275 275 275 275 274 273 272 271 270 269 269 269 270 269 269 269 269
296 296 296 296 295 296 296 295 295 295 294 294 294 293 293 292 291 290 289 289 288 288 287 286 286 286 286 287 287 286 286 286 286 286 286 286 285 284 284 284 284 284 284 284 284 285 285 286 285 283 282 281 281 281 280 280 279 278 277 278 278 278 278 277 277 277 276 275 275 275 274 274 273 272 271 270 269 269 268 268 269 269 268 267 268
295 294 294 294 294 294 294 293 293 293 293 293 292 292 292 292 291 290 289 288 288 287 287 286 286 286 286 286 286 286 285 285 285 285 285 284 284 284 284 283 283 283 283 283 284 284 284 284 283 281 281 281 280 280 280 279 278 277 277 277 277 277 277 277 276 276 275 275 275 274 273 272 272 271 270 269 269 268 268 268 268 268 268 267 267
293 293 293 292 292 291 291 291 291 291 291 291 291 291 291 291 291 290 290 290 289 288 287 287 286 286 286 286 285 285 284 284 285 286 286 285 284 284 284 283 283 283 283 283 284 283 283 282 281 280 280 280 279 279 278 278 277 277 277 277 276 276 276 276 276 275 275 274 274 273 272 271 270 270 269 269 269 268 268 268 267 267 267 267 267
292 292 291 291 291 290 290 290 290 289 289 290 289 289 290 290 290 290 291 291 290 289 288 288 288 288 287 286 286 285 284 285 287 287 287 286 285 285 284 284 284 284 283 284 283 283 281 281 280 279 279 278 278 277 277 277 277 276 276 275 275 275 275 275 275 275 274 274 273 272 270 269 269 269 269 269 269 268 267 267 267 266 266 266 267
290 290 290 289 289 289 288 288 288 288 288 288 288 288 288 288 288 288 288 289 289 288 288 288 288 287 286 286 287 287 286 287 287 287 286 286 286 285 284 284 284 284 283 283 283 282 281 280 280 279 278 278 277 277 277 276 276 275 275 274 275 275 275 275 274 274 274 273 272 270 269 268 269 268 268 267 268 268 267 267 266 266 265 265 266
288 288 288 288 288 287 287 287 287 287 286 286 286 286 286 286 286 286 286 286 286 286 286 286 286 286 285 285 286 286 286 286 286 286 286 286 286 285 285 284 283 283 283 282 282 281 280 280 279 278 278 277 277 277 277 276 276 275 275 274 274 275 275 274 274 274 273 272 271 270 268 268 268 268 267 266 267 267 267 266 265 265 265 265 266
287 287 287 287 287 286 286 286 285 285 285 285 285 284 284 284 285 285 285 285 285 285 285 285 285 285 285 285 285 285 285 285 285 285 285 285 285 285 284 283 283 282 282 282 281 280 279 279 278 278 277 277 277 277 277 276 276 276 275 275 275 275 275 274 274 273 273 271 270 269 268 268 268 267 266 266 266 265 265 265 264 264 264 264 265
285 285 285 285 285 285 285 284 284 284 284 284 284 283 283 284 284 285 284 284 284 284 284 284 284 284 284 284 284 284 284 284 285 284 284 284 284 284 283 282 282 281 281 280 280 279 279 278 277 277 277 277 277 277 276 276 276 276 276 275 275 275 274 274 273 272 271 271 270 268 268 267 267 266 266 266 265 264 264 264 264 264 264 264 265
284 284 284 284 284 283 283 283 283 283 283 283 283 282 282 283 284 284 284 284 283 283 283 283 283 283 283 283 283 284 284 284 283 283 283 283 283 283 282 281 281 281 280 280 279 278 278 277 277 277 277 277 277 276 276 276 276 276 276 275 275 274 274 273 272 271 271 270 269 268 267 267 266 266 265 265 264 264 263 263 263 263 263 264 264
283 283 283 283 282 282 282 282 282 282 281 282 282 282 282 282 282 282 283 283 284 283 283 283 283 283 283 283 283 283 283 282 282 282 282 282 282 282 281 281 280 280 280 280 279 278 278 277 276 276 276 276 276 276 276 276 276 276 275 275 274 274 273 272 271 271 270 269 269 268 267 267 266 265 264 264 264 263 263 263 263 263 263 263 263
282 282 282 281 281 281 281 281 281 280 280 280 280 280 281 281 281 281 281 282 282 283 283 282 282 282 282 282 282 282 282 281 281 281 281 281 281 281 281 280 280 280 280 280 279 278 277 277 276 275 275 275 275 275 276 276 276 276 275 275 274 273 273 272 271 270 269 269 268 267 267 266 266 265 264 263 263 263 263 262 262 262 262 262 262
282 281 281 280 280 280 280 280 280 280 279 279 279 279 279 279 279 279 280 280 280 281 281 281 281 281 281 282 282 282 281 281 280 280 280 280 281 281 281 281 280 280 280 279 279 278 277 277 276 275 274 274 274 275 276 276 276 276 275 274 274 273 272 271 270 269 268 268 267 267 267 266 266 265 264 263 263 263 262 262 262 262 262 262 262
282 282 281 281 280 280 279 279 279 279 278 278 278 278 278 278 278 278 278 278 279 279 279 279 279 279 280 280 281 281 281 280 280 280 281 281 281 281 281 281 280 280 279 279 279 279 278 277 276 275 275 274 274 275 276 276 275 275 274 273 273 272 271 270 269 268 268 267 267 267 267 266 266 265 264 263 263 263 262 262 262 262 261 261 262
282 282 282 282 282 281 280 280 279 279 278 278 278 277 277 277 277 277 277 277 277 277 277 277 278 278 278 279 279 279 279 280 280 281 281 281 281 281 281 281 280 279 279 279 279 278 278 277 277 276 275 275 275 275 275 275 275 274 273 272 272 271 270 269 269 268 268 267 267 267 266 266 265 265 264 263 263 263 262 262 261 261 261 261 261
281 281 281 281 281 280 280 280 279 278 278 277 277 277 276 276 276 276 276 276 276 276 276 276 276 277 277 277 278 278 278 279 280 280 280 280 280 280 280 280 280 279 279 279 278 277 276 277 276 276 275 275 275 275 274 274 274 273 272 272 271 270 269 269 269 268 268 267 267 266 266 266 265 264 263 263 263 263 262 261 261 261 261 261 261
279 279 279 279 279 278 278 278 277 276 276 276 275 275 275 274 274 274 274 274 274 274 275 275 275 275 276 276 276 276 277 277 278 279 279 279 280 280 280 280 279 279 278 278 277 276 275 275 275 275 275 275 275 274 274 273 272 272 271 270 270 269 269 269 268 268 267 267 266 266 266 266 265 264 263 263 263 263 261 261 261 261 260 260 260
278 278 278 277 277 277 276 276 276 275 275 275 275 274 274 274 273 273 273 273 273 273 273 273 273 274 274 274 274 274 275 275 276 277 278 278 279 279 279 279 279 278 278 277 277 276 275 275 274 274 275 275 274 274 273 272 272 271 270 270 269 269 269 269 268 268 267 267 266 266 266 265 265 264 263 263 263 262 261 260 260 260 260 260 260
277 277 277 276 276 276 275 275 275 274 274 274 274 273 273 273 273 273 272 272 272 272 272 272 272 272 272 273 273 273 273 274 275 275 276 276 277 277 277 277 277 278 277 277 276 276 275 275 274 274 275 275 274 274 273 272 272 271 270 270 269 269 269 269 268 268 267 267 267 267 266 265 265 264 263 263 263 262 261 260 260 260 260 260 260
277 277 276 276 275 275 275 274 273 273 272 272 272 272 272 271 271 271 271 271 271 271 271 271 271 271 271 271 271 272 272 273 273 274 274 274 275 275 275 276 276 276 276 276 275 275 274 274 274 274 274 274 274 273 272 272 271 271 270 270 269 269 269 268 268 268 267 267 267 266 266 265 265 264 263 263 263 262 261 261 260 260 260 260 260
276 276 275 275 274 274 273 273 272 272 271 271 270 270 270 270 269 269 269 269 269 269 270 270 270 270 270 270 270 270 271 271 272 272 272 273 273 273 273 274 274 274 274 274 274 274 273 273 273 273 273 273 273 272 271 271 270 269 269 269 268 268 268 268 268 268 267 267 266 266 266 265 265 264 264 263 263 262 262 261 260 260 259 259 259
275 274 274 273 273 272 272 271 270 270 270 269 269 269 269 269 269 268 268 268 268 268 269 269 269 269 269 269 269 270 270 270 270 271 271 271 271 272 272 272 272 272 272 272 272 272 272 272 272 272 272 272 272 271 270 270 269 268 268 267 267 268 268 268 267 267 266 266 266 266 265 265 264 264 263 263 262 262 262 261 260 259 259 259 259
273 273 272 272 271 271 270 269 269 269 268 268 268 268 268 268 268 268 268 268 267 267 268 268 268 268 268 268 269 269 269 269 269 269 269 270 270 270 270 270 270 270 270 271 270 270 270 270 270 270 270 270 270 270 269 269 268 268 267 267 267 267 267 267 267 266 266 266 265 265 265 264 264 263 263 262 262 262 261 261 260 259 259 258 258
271 271 271 270 269 269 268 268 267 267 267 267 267 267 267 267 267 267 267 267 267 267 267 267 267 268 268 268 268 268 268 268 268 268 269 269 269 269 269 269 269 269 269 269 269 269 269 269 269 269 269 269 269 269 268 268 268 267 267 267 267 267 267 266 266 266 265 265 265 264 264 264 264 263 263 262 262 261 261 260 259 258 258 258 258
269 269 269 268 268 267 266 266 266 265 265 265 265 265 266 266 266 266 266 266 266 266 266 267 267 267 267 267 267 267 268 268 268 268 268 268 268 268 268 268 268 268 268 268 268 268 268 268 268 268 268 268 268 268 268 267 267 267 267 267 267 266 266 266 266 266 265 265 265 265 265 264 264 263 263 262 262 261 261 260 259 258 258 258 258
268 267 267 266 266 266 265 265 264 264 264 264 264 264 264 264 265 265 265 265 265 266 266 266 266 266 266 266 267 267 267 267 267 267 267 267 267 267 267 267 267 267 267 267 267 267 267 268 268 268 268 267 267 267 267 267 266 267 267 267 266 266 265 265 265 265 265 265 265 265 264 264 264 263 263 262 262 261 261 260 259 258 257 257 257
266 266 265 265 264 264 264 263 263 263 263 263 263 263 263 264 264 264 264 265 265 265 265 265 265 266 266 266 266 266 266 266 266 266 266 266 266 266 266 266 266 266 266 266 266 266 266 267 267 267 267 267 267 266 266 266 266 267 267 266 266 265 265 265 265 264 264 264 264 264 264 264 263 263 263 262 262 261 260 260 259 258 257 257 257
Wind_Speed
24 22 20 21 25 28 29 28 29 30 30 29 28 29 31 33 34 34 34 34 34 33 33 33 33 34 33 33 33 32 30 28 27 26 26 24 23 24 26 26 26 24 23 23 22 22 21 20 18 17 16 15 14 13 11 9 7 6 5 4 2 1 3 4 4 6 8 10 13 15 16 18 19 18 19 22 23 24 25 24 23 23 25 26 28
23 19 19 20 22 25 28 29 29 30 31 31 32 32 32 32 34 34 34 34 34 34 34 34 35 36 35 35 34 32 30 29 28 27 26 24 24 25 27 27 26 25 25 23 23 22 20 19 18 17 17 16 15 13 10 8 7 5 4 2 1 2 2 3 4 5 7 9 13 15 17 18 18 18 20 22 24 25 26 25 23 24 25 27 29
21 18 18 20 21 24 27 28 29 30 31 32 33 34 34 34 34 34 35 35 35 35 35 36 37 37 37 36 34 31 31 31 29 28 27 25 25 27 28 29 28 27 26 25 24 23 20 19 19 19 18 17 15 12 10 8 6 4 3 2 1 3 3 2 3 4 6 8 10 13 16 18 17 18 20 22 25 26 25 24 23 23 24 26 29
19 18 18 20 22 24 26 28 29 30 32 33 34 35 35 35 35 35 35 35 36 36 36 37 39 39 38 37 34 32 33 31 29 29 29 27 27 30 31 30 28 28 28 27 25 23 21 21 21 21 19 17 15 12 10 8 6 4 3 2 2 3 4 4 4 4 5 7 8 10 14 16 17 19 19 21 25 26 23 22 23 22 21 24 29
18 17 17 20 23 24 26 28 29 30 32 33 34 35 35 36 36 36 36 37 37 37 38 39 40 40 39 38 34 33 34 32 30 31 30 28 28 31 32 30 29 29 29 28 25 23 23 23 22 21 19 17 15 12 10 8 6 5 3 2 2 3 4 4 5 5 5 7 8 9 11 12 14 15 15 18 22 23 19 18 20 21 19 21 26
17 17 16 18 22 24 25 28 29 30 32 32 33 34 35 36 36 36 36 37 37 37 38 40 41 39 38 37 34 33 33 32 31 32 31 29 28 30 32 31 29 29 29 27 25 24 23 23 22 20 18 16 14 12 11 8 7 5 3 3 3 3 4 4 5 5 5 6 7 8 8 10 11 11 12 16 18 19 18 18 18 17 15 17 21
16 16 16 18 21 24 25 27 28 29 30 31 32 33 34 35 35 35 36 36 37 37 38 40 40 38 37 36 33 32 33 33 33 34 33 31 30 31 33 32 29 28 28 27 25 24 23 22 21 19 17 15 13 11 10 9 7 5 4 4 3 3 3 4 5 4 4 5 6 6 7 9 9 10 11 14 14 14 16 19 21 18 15 15 18
16 16 17 19 21 23 25 26 27 28 29 30 31 32 33 34 35 35 35 36 37 38 40 41 39 36 36 35 33 33 34 34 35 35 34 32 32 33 34 33 30 29 28 27 25 25 23 22 20 18 16 14 12 11 9 8 7 6 5 5 4 4 3 3 3 3 3 4 5 5 7 8 8 9 11 13 13 14 16 20 22 22 21 19 18
15 16 18 19 21 22 23 24 25 27 28 29 30 31 32 33 34 34 35 36 37 39 41 41 38 35 34 33 33 33 33 34 36 36 35 35 35 35 34 33 31 31 29 27 26 25 24 22 20 18 16 14 12 11 9 8 7 6 6 5 5 4 3 3 2 2 2 4 4 5 6 7 8 10 12 12 14 16 19 20 20 22 24 24 22
14 16 18 19 20 20 21 23 24 26 27 29 29 30 31 32 33 34 34 36 37 39 40 39 36 34 34 34 33 32 33 35 36 36 37 38 37 36 34 33 33 32 31 29 28 26 24 22 20 18 16 15 13 11 9 8 7 6 6 7 6 4 4 2 2 2 2 3 3 4 5 6 7 9 11 12 13 16 19 19 20 22 22 23 25
14 17 18 19 19 20 21 22 23 25 26 27 28 29 30 31 32 33 34 35 37 38 38 37 34 33 34 34 32 32 34 36 37 37 37 37 37 36 35 34 34 32 31 32 31 28 26 23 21 19 17 15 13 11 9 8 7 6 7 7 5 4 3 2 2 2 2 2 3 4 4 6 8 9 10 12 14 15 17 18 19 21 20 19 22
16 17 18 19 20 20 21 22 22 23 24 25 26 27 29 30 32 33 34 35 36 37 36 34 33 32 32 32 33 34 35 36 37 37 37 36 36 36 36 36 35 33 33 33 31 28 26 24 22 20 18 15 13 11 10 8 7 7 7 6 5 4 3 3 3 3 3 2 3 3 4 5 8 9 10 12 14 15 16 17 17 18 19 18 18
17 18 19 20 21 21 22 22 22 23 24 24 25 26 28 30 31 32 34 35 35 35 34 33 32 31 31 32 34 35 36 36 36 36 36 37 37 37 37 36 34 34 34 33 30 28 26 24 23 21 18 15 13 12 11 9 7 8 7 6 5 4 4 3 3 3 3 3 3 4 4 5 8 9 10 12 14 15 15 15 15 15 17 18 19
19 19 20 21 21 22 22 23 23 23 24 24 25 27 28 29 31 31 32 33 33 32 31 31 30 31 31 33 34 35 36 36 36 36 37 37 38 38 36 34 34 34 33 31 28 26 25 24 23 21 18 17 15 13 11 9 8 9 8 7 6 5 4 3 3 4 4 4 4 4 4 5 7 10 11 11 12 14 14 15 17 18 19 20 20
21 22 22 22 22 22 23 23 24 24 24 25 25 27 28 28 29 29 29 30 30 30 29 29 29 30 32 32 33 35 37 37 37 38 39 39 39 38 35 34 34 33 31 29 26 24 23 22 21 20 18 17 15 13 11 10 10 10 8 7 7 5 4 5 5 5 4 3 4 4 5 7 8 10 10 11 12 13 14 16 17 19 20 21 20
23 24 24 24 23 23 23 23 23 24 24 25 26 27 27 28 28 28 28 28 28 28 28 29 30 32 33 33 33 34 36 37 39 40 40 40 39 37 35 34 34 32 30 28 25 24 23 22 20 19 17 16 15 13 11 11 12 11 10 9 8 7 6 6 7 6 5 4 5 6 7 10 11 12 12 12 12 13 13 15 15 15 16 18 19
24 24 25 25 25 25 25 24 24 24 24 25 26 27 27 28 28 28 28 28 28 28 28 29 31 32 33 33 33 34 35 38 40 41 41 40 39 37 36 35 33 32 30 27 26 24 23 22 21 18 17 16 14 12 12 13 14 12 11 10 9 8 7 7 7 7 7 6 6 7 9 11 12 13 14 14 14 12 11 12 11 11 13 15 16
23 23 24 25 25 25 26 26 26 26 26 26 27 27 27 28 28 28 28 28 28 28 27 28 29 30 31 32 33 33 36 38 40 40 40 39 38 37 37 35 33 32 30 28 26 25 24 22 20 18 17 15 13 13 15 15 15 14 13 12 11 10 9 9 9 8 7 6 6 7 8 9 10 11 12 13 13 10 8 9 10 10 12 13 14
19 20 22 23 24 24 25 25 26 26 27 27 27 27 27 27 27 27 27 27 26 26 26 27 27 29 31 32 32 33 36 38 39 39 39 39 38 37 36 36 34 32 30 29 27 26 24 23 21 19 17 15 14 16 17 16 16 15 14 14 13 12 11 12 11 8 6 5 5 6 7 8 9 10 10 10 10 8 7 7 8 9 11 13 14
18 18 19 21 22 23 24 24 25 26 26 26 26 26 26 26 26 26 25 25 25 26 27 27 28 29 30 31 31 32 35 38 38 38 38 38 37 37 37 36 35 33 32 30 29 28 26 24 23 20 17 16 17 18 18 18 18 16 15 16 16 14 13 12 10 6 5 5 5 6 7 8 9 9 9 10 9 7 6 7 8 9 10 12 14
16 17 18 19 21 21 22 23 24 24 25 25 25 25 25 25 25 25 25 24 24 24 25 25 26 27 28 29 30 30 33 36 37 37 37 37 37 36 36 36 35 33 33 31 30 29 27 26 23 20 19 19 19 19 19 19 17 16 17 17 16 14 13 11 7 5 5 6 6 7 8 8 8 9 9 9 8 7 8 10 10 10 11 13 15
14 15 17 18 19 20 21 22 22 23 23 23 23 24 23 23 23 24 23 23 23 23 23 24 25 25 25 26 28 29 31 33 35 36 36 36 36 35 35 34 33 32 32 32 30 29 27 25 21 20 20 21 21 21 20 18 17 17 18 16 14 14 12 9 6 6 6 7 8 8 8 9 9 9 9 9 8 9 11 12 11 11 12 14 15
11 12 15 16 17 17 18 19 21 22 22 23 23 23 23 22 22 22 23 23 22 22 23 24 24 24 24 25 26 28 29 31 34 35 35 35 34 33 32 32 32 31 30 30 29 28 26 23 21 21 23 23 22 22 20 17 17 18 17 15 15 15 12 9 8 7 7 8 9 9 9 9 9 9 9 9 9 11 12 12 12 12 12 13 14
9 10 12 14 15 16 16 17 18 19 20 22 22 22 22 22 22 22 23 24 24 24 24 25 25 25 25 25 26 27 29 30 32 34 34 33 33 33 33 33 32 30 29 27 27 26 24 22 22 23 24 24 22 21 18 17 18 17 16 17 17 15 12 10 9 8 8 9 10 10 9 9 9 9 9 10 11 12 12 11 12 12 13 14 15
9 10 12 12 13 14 15 16 17 18 19 20 19 20 21 21 21 22 23 24 25 25 24 25 26 27 27 27 28 29 29 30 31 32 33 33 33 33 34 32 30 29 29 28 26 24 23 22 22 23 24 23 21 18 16 18 20 18 18 20 19 15 13 12 11 9 9 11 12 11 10 9 9 9 9 10 10 11 11 13 14 14 15 16 17
8 10 11 11 12 13 14 15 17 17 18 19 19 20 21 21 22 23 23 23 24 25 25 26 27 28 29 30 31 30 28 29 30 31 32 32 33 33 32 30 30 29 29 29 27 24 23 23 23 24 24 22 20 20 20 21 21 20 21 22 19 16 15 14 12 12 12 12 13 12 11 10 9 8 8 8 9 9 11 13 14 15 16 17 18
8 9 9 9 10 12 13 14 16 16 17 19 19 20 21 23 24 24 25 25 24 25 27 28 29 31 32 31 31 30 28 27 29 31 32 32 33 32 31 31 32 31 30 29 28 25 25 24 23 23 23 22 22 23 24 23 22 23 24 22 19 17 16 15 14 13 13 13 13 12 11 10 9 8 7 7 8 8 10 12 14 15 16 16 17
7 7 8 8 9 10 11 13 14 15 17 19 20 21 23 25 27 28 30 31 30 30 32 33 34 36 36 34 31 30 28 29 32 36 38 37 36 35 34 34 34 33 32 32 29 26 24 23 22 23 24 24 25 26 26 26 26 26 25 23 20 18 17 16 15 15 14 14 13 13 12 10 9 8 7 7 7 8 10 11 12 14 15 14 12
6 6 7 7 8 9 10 12 13 14 16 17 19 20 22 24 27 28 30 32 32 32 34 36 38 40 39 38 37 34 33 36 40 41 39 38 38 37 36 36 36 35 35 33 30 27 25 25 26 27 28 28 29 29 29 29 29 28 27 24 21 20 18 17 17 15 14 14 13 13 12 10 9 8 7 7 7 8 10 10 11 13 13 11 11
5 5 5 6 7 8 9 10 12 13 14 15 17 18 19 21 23 23 24 26 28 28 29 31 34 35 36 37 39 38 36 37 39 38 37 36 35 35 35 36 35 35 34 31 29 28 28 30 31 32 32 33 33 33 32 32 31 30 28 26 23 21 20 19 19 17 15 14 14 14 12 10 9 9 8 7 8 8 9 10 11 12 11 10 11
5 5 5 5 6 7 8 9 10 11 12 13 14 14 14 15 18 20 20 21 23 24 25 26 27 29 30 32 34 35 33 31 31 32 34 35 35 34 35 34 33 32 31 30 29 30 32 33 34 35 36 36 36 37 35 34 33 32 29 27 25 23 22 21 20 18 16 15 15 14 13 11 9 9 9 9 9 9 9 9 10 10 10 9 10
5 5 5 6 6 6 7 8 9 10 11 12 13 12 10 10 12 16 18 19 19 21 22 23 23 24 25 27 29 31 32 31 29 28 29 33 36 36 35 33 32 30 28 27 30 33 34 36 37 37 38 38 38 38 36 34 34 32 30 27 26 24 23 22 21 19 17 16 15 15 13 11 10 10 10 9 9 9 9 8 8 8 9 9 9
5 6 6 6 5 6 6 7 8 9 9 10 11 11 10 7 7 9 13 16 18 19 20 21 21 21 22 23 25 26 28 30 30 28 26 28 32 35 34 31 28 26 25 27 30 33 35 37 38 39 39 40 40 38 36 35 34 32 29 28 26 24 23 22 20 19 17 16 16 15 14 12 11 11 11 10 9 9 9 8 8 7 8 8 8
5 6 6 6 6 5 6 6 7 8 8 9 10 10 11 10 8 7 7 9 12 15 17 20 20 21 21 22 22 23 24 25 27 28 26 24 26 30 31 28 23 23 27 30 34 36 36 38 40 40 40 39 39 37 36 35 34 31 29 28 26 24 23 21 20 19 18 17 16 16 15 13 12 11 11 11 10 10 9 8 7 7 7 7 8
5 5 6 6 6 5 5 6 6 7 8 9 9 10 11 12 12 10 8 8 8 9 12 17 19 19 21 21 22 22 23 23 23 25 25 24 24 24 25 23 22 24 28 31 35 38 38 35 35 38 39 39 38 37 36 35 34 32 30 29 26 25 24 22 21 21 19 18 18 17 16 14 13 12 12 12 11 11 10 9 8 7 7 7 8
6 6 6 6 6 6 5 5 5 6 6 7 8 9 10 11 11 11 10 10 10 8 10 13 16 16 17 19 20 21 21 21 22 23 24 24 23 23 24 23 22 25 29 30 32 38 39 34 30 32 35 37 38 37 36 35 34 32 30 29 27 26 25 23 23 22 20 19 19 18 17 15 14 12 13 14 13 12 12 11 10 9 7 7 8
7 7 6 6 6 6 5 5 5 5 5 6 7 8 9 10 11 11 10 11 11 11 12 13 14 14 15 17 18 18 18 18 19 19 19 20 21 24 25 23 21 22 27 30 31 34 36 35 31 30 31 33 36 37 36 34 33 31 30 29 28 26 25 24 23 22 21 20 20 19 17 16 14 14 14 14 14 13 12 11 10 9 8 8 8
8 7 7 6 6 6 6 5 5 5 5 6 6 7 8 9 10 11 12 12 12 14 15 15 15 15 16 17 17 17 16 15 14 15 17 19 22 24 25 24 23 24 28 31 31 31 33 35 35 33 32 32 33 35 35 34 32 31 30 29 27 26 25 24 22 22 21 21 20 19 17 16 15 15 15 15 15 15 14 13 11 9 9 9 8
7 7 6 5 5 5 5 5 6 6 6 7 7 7 8 9 10 11 12 13 14 15 15 15 16 17 18 18 16 15 15 14 14 15 17 20 23 24 24 23 26 30 32 32 30 31 34 36 35 34 34 33 32 32 33 33 32 31 30 29 28 26 25 25 24 23 22 21 20 19 18 17 16 16 16 16 16 16 16 15 13 10 9 9 9
7 6 6 6 5 5 4 4 5 5 5 6 7 8 9 10 10 11 12 12 14 14 14 14 15 17 18 18 17 15 16 17 16 16 18 21 24 26 25 25 28 31 32 31 29 29 33 37 37 35 36 34 32 32 33 32 31 30 30 29 28 27 26 25 24 23 22 20 19 18 18 17 16 16 17 17 16 16 17 16 14 12 10 10 10
6 6 6 6 6 6 6 6 5 5 6 6 7 8 9 10 11 11 12 12 13 14 14 14 16 17 18 18 17 17 20 21 21 21 22 25 27 29 29 30 31 30 30 31 30 28 29 34 36 36 36 35 32 32 32 32 30 30 29 28 27 26 25 24 23 22 22 20 19 18 18 17 16 17 18 17 17 17 16 15 13 12 12 10 9
7 6 6 6 6 6 7 7 7 7 7 7 8 8 9 10 11 12 13 14 15 15 16 17 18 19 19 17 16 17 20 23 25 25 25 25 26 28 30 31 33 32 31 32 33 32 32 34 35 35 35 34 32 31 32 32 31 30 29 28 27 26 25 24 23 23 22 20 19 18 17 16 16 17 18 18 17 17 16 15 14 13 12 11 8
8 8 8 7 7 7 7 8 8 8 8 8 9 9 10 11 12 13 14 15 16 16 17 18 19 19 19 18 17 17 19 21 23 24 23 23 25 28 29 31 33 34 34 34 34 34 34 35 36 35 34 33 32 32 32 31 31 31 30 29 28 27 25 24 24 23 22 20 18 17 17 16 17 18 18 18 18 18 17 16 15 15 14 11 9
9 9 9 9 9 9 8 8 9 9 9 9 10 10 10 10 11 11 10 11 12 13 13 14 16 17 18 18 17 17 18 19 19 20 22 24 27 30 31 31 32 33 34 35 35 34 34 36 36 35 33 31 30 30 30 30 29 30 29 28 28 27 25 24 23 22 20 19 17 17 17 18 18 19 19 18 18 19 18 16 16 16 15 11 8
9 9 9 9 9 9 9 9 9 9 10 9 9 8 8 8 9 10 10 10 11 11 11 11 12 13 15 15 15 16 18 19 19 20 22 25 27 29 31 32 32 32 33 34 34 34 35 35 35 34 33 31 29 28 28 28 28 28 27 26 26 25 23 22 21 19 18 18 18 18 18 19 19 20 19 19 18 19 18 17 16 16 16 13 10
9 10 10 9 9 9 9 9 9 9 9 9 8 7 6 6 7 9 11 11 11 11 10 10 10 11 11 12 13 14 16 18 20 21 22 23 24 26 29 31 31 31 32 33 33 33 34 33 32 32 32 30 28 27 28 28 27 27 26 25 24 22 20 19 19 18 19 19 20 19 19 20 20 20 19 18 18 19 18 17 16 16 16 15 13
10 10 10 9 10 9 9 9 9 9 9 9 8 8 8 7 7 8 10 11 11 11 10 9 10 10 10 11 12 12 13 15 17 18 19 21 22 23 25 28 29 29 30 31 31 31 32 30 29 29 29 28 27 27 27 26 26 26 25 24 22 21 20 20 20 20 20 20 19 18 19 20 20 20 19 19 18 18 18 17 17 17 17 16 14
11 10 10 9 9 9 9 9 9 9 8 8 8 8 7 7 7 7 7 8 9 9 9 9 10 10 10 11 11 11 11 13 14 15 16 17 18 19 23 26 27 27 28 28 28 29 28 28 27 27 26 26 26 26 25 25 25 24 24 23 22 21 21 20 20 20 19 19 18 18 19 20 20 21 20 19 19 18 18 17 17 16 16 15 13
11 10 10 10 10 9 9 9 10 9 8 8 8 8 8 8 8 8 8 8 9 9 9 10 10 10 10 11 12 12 12 12 13 14 14 14 15 18 22 24 24 24 25 25 25 25 25 24 24 24 23 24 24 24 24 24 24 24 23 23 21 20 20 19 19 19 19 19 19 19 20 20 20 21 21 20 19 18 18 18 17 16 15 14 13
10 10 10 10 10 10 10 10 10 10 10 10 10 9 9 9 9 8 8 9 10 10 10 10 11 11 11 12 12 12 13 13 13 12 14 15 17 19 21 21 21 21 22 22 23 23 22 21 21 21 22 22 23 24 23 23 23 23 22 21 20 19 19 19 19 19 19 19 19 19 19 20 21 21 21 21 20 19 18 18 17 16 15 15 15
10 10 10 10 10 10 10 10 10 10 10 10 10 9 8 9 9 8 9 10 11 11 11 11 12 12 12 12 13 13 14 15 15 14 16 18 20 20 19 19 19 19 20 20 21 21 21 21 20 21 21 22 22 23 23 22 22 22 21 20 20 19 19 19 20 20 19 19 19 19 20 21 21 22 22 21 20 20 18 17 17 16 16 16 16
Wind_Direction
235 232 231 230 229 228 226 225 225 223 222 222 222 224 226 227 228 228 227 226 225 222 219 216 212 206 203 204 203 201 202 210 218 219 221 225 222 213 204 200 202 203 201 202 204 206 206 203 199 193 189 190 186 181 178 173 168 165 160 165 199 194 172 188 228 265 288 302 311 318 323 327 333 338 338 339 342 343 343 343 342 343 345 345 346
237 234 233 232 230 227 225 225 225 223 223 223 223 224 224 226 228 227 225 225 224 221 218 214 209 204 203 203 203 203 208 213 214 213 216 219 212 203 200 200 203 203 201 202 203 201 198 192 189 186 184 185 183 178 174 169 165 164 160 168 205 259 245 204 221 257 279 297 311 321 326 329 331 335 337 338 340 342 342 344 343 341 343 345 344
240 237 235 233 231 230 228 226 225 224 223 223 223 223 225 227 228 226 224 224 222 220 217 213 207 203 203 203 204 207 211 212 213 213 215 214 205 199 199 201 202 200 199 201 199 194 189 187 187 187 184 182 179 176 172 170 171 171 178 196 235 281 291 270 241 247 268 293 307 316 323 328 331 333 337 339 340 341 341 341 341 339 340 343 342
244 240 237 235 233 230 228 226 225 224 223 223 224 224 225 226 226 224 223 222 221 218 215 211 206 203 203 202 204 208 211 211 212 213 214 212 204 199 200 203 203 200 199 199 196 192 188 187 189 189 184 180 177 177 174 174 179 182 195 236 280 297 303 298 284 263 264 286 298 307 317 325 330 333 336 336 337 340 339 336 335 335 337 340 340
245 241 237 235 233 230 228 227 225 224 224 224 224 224 224 224 224 222 221 220 218 215 211 208 204 203 202 202 204 208 209 209 209 209 210 211 207 203 202 203 203 201 200 200 196 191 187 188 190 188 183 181 179 178 178 180 184 189 201 237 265 287 294 291 293 287 271 276 291 303 312 318 323 328 331 330 333 336 333 327 329 332 334 337 336
246 243 239 235 233 230 228 227 226 225 225 224 224 223 222 222 221 220 218 217 215 212 209 204 202 202 203 203 205 208 208 207 207 206 206 209 207 202 200 201 201 201 201 199 193 189 188 189 190 188 186 186 184 182 183 184 187 193 207 227 245 274 284 284 297 305 289 278 287 298 304 310 316 320 326 329 330 328 325 324 327 331 330 328 328
246 244 241 237 233 230 228 228 227 227 226 226 225 223 222 221 220 218 217 215 212 210 206 201 199 201 202 203 206 208 207 206 206 206 207 208 204 198 198 200 200 199 198 193 189 188 189 189 191 190 190 191 189 187 186 186 189 197 210 225 243 254 263 281 302 311 294 280 287 297 305 312 315 316 323 329 327 323 328 331 328 328 328 323 321
246 243 241 237 234 231 229 228 228 227 227 226 224 223 221 220 218 217 216 213 212 209 204 199 197 199 202 204 207 208 208 207 207 207 207 205 201 199 199 199 198 195 191 188 187 188 188 189 191 193 192 193 193 192 191 191 192 198 211 225 233 234 243 273 301 304 281 281 294 301 309 315 319 324 330 336 336 332 335 333 325 322 325 322 320
247 242 241 238 236 234 231 229 227 226 225 224 223 221 220 218 216 215 213 211 209 206 201 197 196 197 201 205 207 209 210 210 208 206 203 200 199 199 198 196 193 189 185 184 187 187 187 188 191 192 193 194 195 195 195 196 197 202 217 222 218 222 235 255 277 270 261 284 301 309 317 321 328 336 338 341 339 330 329 329 320 318 322 320 319
248 242 241 241 239 236 233 229 226 224 222 221 220 218 216 214 213 211 209 208 205 201 197 195 197 201 204 206 208 210 210 208 206 205 202 200 199 197 195 193 190 186 184 184 186 186 187 189 190 191 193 195 196 197 196 199 203 212 221 219 215 224 235 232 224 226 245 282 304 314 321 322 331 338 334 332 332 326 326 326 320 320 324 322 321
244 241 240 240 239 236 232 229 225 222 220 218 216 214 212 210 208 206 204 203 201 198 196 196 199 204 207 207 208 208 207 205 205 205 204 203 200 196 193 190 188 187 187 186 186 186 186 187 188 191 195 196 196 197 199 203 209 217 220 219 220 228 229 213 199 214 235 258 286 307 315 316 326 332 327 327 329 325 322 320 317 319 323 321 319
238 238 237 236 235 232 230 227 224 221 218 216 213 211 209 207 205 202 200 198 196 196 197 200 201 203 206 206 205 204 204 205 205 204 203 203 201 196 192 189 188 188 189 189 188 186 185 187 190 193 196 196 196 198 202 207 213 219 220 220 225 228 225 215 209 219 229 240 269 295 307 314 322 324 324 326 323 318 316 312 311 313 313 311 306
232 233 233 232 230 228 226 223 221 219 217 215 213 210 207 204 202 199 197 196 196 196 198 200 200 202 205 206 204 202 203 205 205 204 203 201 197 194 192 190 189 190 191 191 190 188 188 190 192 194 195 194 196 200 204 208 214 216 217 218 219 217 215 219 222 225 224 227 247 270 294 312 313 311 316 319 314 311 309 305 306 305 301 302 297
226 228 229 229 227 225 222 219 217 217 215 213 211 207 204 201 199 197 196 195 195 195 195 198 201 204 205 205 204 205 205 205 204 202 201 197 195 194 193 192 191 192 193 193 192 191 193 195 196 196 194 193 197 201 204 211 216 216 217 216 212 208 209 212 213 220 221 220 234 259 285 298 298 299 306 309 304 303 302 299 303 302 295 295 292
223 223 224 225 224 221 218 215 214 213 212 209 207 204 202 199 197 196 195 195 195 197 199 202 205 205 205 206 206 207 207 206 202 200 198 195 193 193 192 192 192 192 192 193 193 195 197 199 199 198 195 196 201 203 205 214 221 221 219 214 210 206 204 205 203 211 218 215 230 257 272 277 285 291 297 302 298 294 295 294 297 298 295 296 295
222 221 220 221 221 219 216 213 211 210 208 204 202 201 200 199 199 198 198 198 199 202 205 208 208 206 206 206 204 205 206 204 199 196 195 194 192 191 191 191 191 192 192 192 194 197 200 200 200 199 199 201 203 204 211 221 226 225 219 212 210 206 207 213 210 208 217 232 250 267 275 277 284 285 285 290 290 290 297 296 295 300 301 300 303
221 220 220 220 220 218 216 214 212 211 208 204 203 202 202 203 203 203 202 201 202 205 209 209 208 207 206 204 201 201 200 197 194 194 194 193 192 190 190 191 191 191 192 192 195 198 200 201 201 202 203 204 206 210 219 225 226 224 218 214 212 207 206 213 215 215 228 248 264 274 281 283 285 285 282 282 283 287 298 299 298 307 308 303 308
223 222 221 222 221 220 218 217 216 215 213 211 209 207 207 208 208 208 207 206 207 208 208 208 207 207 205 202 199 197 194 192 192 194 195 195 194 192 190 190 190 191 191 193 196 199 201 201 204 206 206 207 212 219 224 227 227 223 218 216 216 212 206 206 214 225 236 252 266 270 279 284 282 283 284 283 283 283 284 291 298 305 305 300 303
232 229 227 226 225 223 222 220 219 218 217 217 216 213 212 211 210 209 208 209 210 210 208 207 205 204 202 199 197 195 193 191 193 195 196 196 195 193 191 190 189 190 192 194 196 199 201 201 204 206 209 213 219 223 226 228 228 225 219 217 217 214 211 213 220 230 238 250 267 272 278 282 281 285 287 283 286 286 280 287 294 296 298 293 295
240 238 234 232 229 228 227 225 223 222 221 221 219 216 214 212 210 209 208 209 211 211 209 207 203 200 199 197 196 196 195 193 193 196 197 196 196 195 194 193 192 192 193 196 197 198 200 202 204 205 210 219 224 225 227 228 228 227 221 219 219 217 218 223 229 241 251 257 269 274 276 281 284 287 287 286 292 293 281 283 284 283 289 288 290
243 241 238 236 233 231 230 229 228 228 225 223 220 217 215 213 212 210 209 209 210 208 205 203 200 198 197 197 197 197 197 195 194 196 197 197 197 198 198 198 199 198 197 198 199 201 202 204 205 207 214 223 225 225 227 227 226 226 224 224 225 224 225 230 238 258 271 273 277 277 277 282 284 284 287 291 294 288 284 291 291 284 279 277 283
248 244 240 239 236 233 231 229 229 228 225 222 219 217 215 215 214 211 209 207 205 202 199 197 196 195 196 197 198 198 198 197 195 195 198 199 199 201 202 204 205 204 201 199 201 205 207 207 210 215 220 223 224 226 227 223 221 226 229 228 226 227 231 236 245 259 268 270 272 272 273 279 283 285 288 289 287 287 295 302 299 291 285 278 275
254 246 241 240 238 235 234 231 227 226 223 220 218 216 215 214 211 208 206 203 199 196 196 195 194 193 193 195 198 199 199 198 197 197 199 201 202 203 205 207 208 208 207 207 207 208 209 212 217 221 222 222 223 224 222 217 220 228 229 224 224 229 235 241 245 250 256 260 261 262 267 275 281 284 284 283 283 290 298 304 306 308 305 297 289
246 240 238 237 236 235 234 230 227 224 221 218 215 212 211 210 206 205 203 199 194 193 194 194 192 191 192 193 196 198 198 199 200 200 201 203 204 205 206 208 209 210 212 215 215 213 214 219 224 224 221 220 221 220 215 214 222 226 222 222 228 233 236 240 241 241 245 249 251 254 260 268 275 276 275 277 284 294 305 313 319 325 323 316 313
240 235 234 232 231 231 229 226 224 223 221 217 212 209 208 204 201 201 199 197 195 193 192 192 192 192 192 193 196 198 199 200 201 202 203 205 206 208 208 208 209 211 214 215 217 218 222 228 230 224 219 218 217 214 211 216 223 224 222 226 231 234 235 237 236 234 236 242 246 252 257 263 269 270 272 282 293 306 319 326 330 335 334 327 323
247 240 236 232 229 226 222 220 220 219 219 217 213 213 211 204 200 199 197 197 198 196 194 195 195 195 196 197 197 197 197 200 202 203 204 205 208 210 210 210 211 214 215 215 216 221 226 230 227 220 215 215 213 210 211 216 220 221 224 228 232 233 234 235 232 230 233 238 245 252 256 260 265 266 272 288 304 317 325 330 335 339 339 333 327
252 248 243 239 234 228 222 219 216 214 214 213 212 214 213 208 204 201 199 199 199 199 199 199 198 198 200 200 199 198 198 200 202 203 204 205 208 209 210 211 213 214 214 214 217 221 225 224 220 215 213 213 213 214 215 215 215 219 224 230 233 233 234 235 234 233 234 239 247 253 256 259 261 262 271 291 308 320 329 335 337 339 341 339 328
252 251 247 242 238 233 228 224 219 215 214 212 210 211 211 210 209 208 207 206 203 202 203 203 203 204 203 200 198 198 199 203 205 207 207 207 207 208 208 210 213 213 213 215 217 218 217 214 210 210 211 212 213 215 216 215 217 223 228 231 232 232 232 234 234 235 236 241 248 253 255 258 257 258 272 292 306 319 332 338 336 337 344 342 321
261 256 250 244 240 235 232 231 226 223 221 217 215 215 214 213 214 216 218 217 213 211 210 210 211 211 209 205 202 199 202 211 215 213 211 209 208 208 209 211 214 215 215 216 215 211 208 208 208 209 209 210 212 214 215 216 220 225 228 229 229 228 228 230 233 235 239 243 249 253 253 253 255 261 273 289 302 317 331 336 336 340 344 334 309
285 272 261 255 251 244 238 237 233 231 229 225 223 224 224 222 221 222 225 224 221 219 219 219 219 218 215 213 213 209 211 219 222 219 215 214 213 212 212 213 215 215 215 215 213 211 209 211 211 211 210 211 213 215 216 216 218 221 223 224 224 224 226 229 231 234 238 242 246 250 251 250 255 264 272 281 295 312 325 332 337 342 339 321 306
308 301 289 277 271 261 252 249 244 238 236 233 229 230 232 232 229 228 229 230 227 226 227 229 229 226 223 223 224 222 222 227 231 228 224 222 220 218 217 217 217 217 217 214 212 212 213 213 213 214 214 215 217 218 218 217 218 219 219 219 221 223 225 228 230 232 235 238 241 247 250 250 255 263 268 275 290 306 318 328 335 334 324 310 305
330 330 317 302 296 285 271 265 259 251 246 242 237 232 233 238 238 235 234 234 233 232 232 234 236 236 233 233 234 233 233 234 237 237 234 229 225 222 222 221 220 219 219 218 216 216 216 215 216 217 217 218 221 222 221 219 220 220 219 218 220 222 225 228 231 232 232 233 238 245 247 247 254 261 266 275 288 297 305 316 323 318 309 303 303
355 354 343 334 325 308 291 282 273 265 259 253 248 242 240 242 246 245 241 238 237 237 236 237 239 240 240 241 241 242 242 242 242 244 242 237 230 226 224 225 222 218 215 217 220 221 220 220 221 222 222 223 225 224 222 222 223 222 221 221 222 224 227 229 231 232 232 232 236 243 244 246 254 261 265 274 281 286 294 303 305 299 292 294 300
13 9 5 0 349 331 316 301 286 278 270 263 257 253 251 252 257 262 259 249 245 243 242 242 242 242 244 246 246 247 249 250 249 249 247 243 238 232 228 226 222 217 218 221 223 223 223 224 226 227 227 227 228 226 224 224 224 223 223 223 223 225 227 228 228 231 233 232 235 241 244 246 252 257 263 270 273 276 285 289 284 280 280 285 295
26 23 20 14 8 358 341 322 308 298 289 280 272 265 261 260 260 262 265 265 261 258 254 252 250 248 247 249 250 251 251 252 251 250 247 245 240 229 220 216 214 213 218 222 225 226 226 227 230 233 232 231 230 229 227 226 226 224 223 223 223 223 224 225 227 230 232 232 235 240 242 245 250 253 258 264 267 269 275 276 272 273 278 282 288
36 30 24 18 17 12 0 349 338 319 305 297 290 281 276 272 268 266 269 271 270 271 268 265 262 258 254 252 252 252 252 251 250 248 245 242 233 216 207 208 212 214 216 221 226 229 230 230 234 238 237 234 232 231 229 228 228 226 225 225 224 224 224 225 226 228 230 231 235 239 241 244 250 253 255 261 266 269 272 275 274 274 276 278 282
44 38 28 18 12 8 1 359 352 334 319 309 299 292 288 285 279 276 275 275 274 273 273 272 271 267 261 257 255 254 252 252 251 246 239 233 224 213 211 216 219 219 221 225 227 230 231 231 234 239 241 238 235 233 231 231 229 227 226 226 225 224 226 227 227 228 229 231 235 239 241 245 250 253 255 259 264 268 270 271 269 270 276 280 281
46 40 31 19 10 3 356 350 346 337 328 316 306 298 291 287 285 283 280 278 278 278 276 276 274 268 261 261 261 258 254 249 242 234 226 220 214 214 219 225 227 227 229 230 229 231 233 234 235 238 242 243 240 236 234 232 230 227 226 225 224 223 224 225 226 227 229 231 235 239 243 247 251 254 255 257 262 267 270 269 266 267 274 278 276
47 41 33 23 13 2 350 342 338 334 326 317 311 305 297 291 290 289 286 285 284 282 280 276 272 268 265 265 265 259 249 238 227 221 219 216 215 217 222 228 232 233 234 234 234 234 237 239 239 240 243 246 245 240 236 234 231 229 226 225 224 223 222 223 225 228 230 233 237 241 245 249 252 255 256 257 262 267 270 270 269 266 267 269 272
41 34 26 22 16 5 354 345 334 325 318 309 305 303 300 297 294 292 291 291 289 285 281 275 271 273 274 273 268 259 248 241 235 231 228 224 223 223 225 230 236 237 236 236 236 237 240 243 243 243 246 249 248 243 237 234 232 229 228 226 225 223 224 225 228 231 234 236 239 243 247 250 253 256 257 259 262 267 269 271 270 267 266 267 271
33 25 17 13 7 360 357 353 341 329 321 313 309 306 302 300 298 296 295 294 290 286 282 278 278 281 283 281 275 265 256 251 249 246 243 240 237 234 233 236 239 240 239 237 237 238 242 246 247 246 248 250 250 244 238 234 232 229 228 227 226 225 227 230 232 235 238 240 241 244 248 252 255 256 257 261 265 267 267 266 266 266 267 267 265
21 16 12 6 0 356 352 344 336 329 323 318 317 313 307 304 302 301 298 294 290 288 286 286 287 290 290 287 281 271 262 258 256 253 252 250 247 245 243 243 244 244 244 243 242 243 245 248 250 251 251 251 249 243 236 232 231 229 228 227 227 227 229 231 234 237 240 242 244 246 249 252 255 255 258 261 264 265 264 263 262 264 265 264 263
9 7 4 358 354 352 345 337 333 329 324 321 318 312 308 305 301 299 297 293 290 289 288 289 291 293 293 291 286 274 263 259 258 257 256 255 253 252 251 251 251 250 250 250 250 249 249 251 254 256 256 255 251 246 241 237 234 232 230 229 229 230 230 232 235 239 241 243 245 247 249 251 252 254 257 260 261 262 263 262 263 265 264 262 264
1 359 355 351 348 345 341 337 334 329 325 323 320 316 314 311 304 298 293 289 289 290 288 288 290 292 291 290 286 275 265 260 259 260 261 262 261 260 259 259 259 258 256 256 255 253 252 253 255 257 258 257 253 248 244 241 238 236 235 233 232 231 231 233 238 242 244 245 245 245 246 248 250 252 254 257 259 261 261 261 264 266 264 259 259
354 350 348 346 343 341 338 335 332 329 327 325 321 318 315 309 303 300 296 292 292 293 289 287 288 289 288 286 282 276 270 266 264 265 267 268 268 267 266 266 266 264 263 262 261 259 258 258 258 258 258 256 252 246 241 238 237 237 236 235 235 235 237 241 246 248 247 244 243 243 244 246 249 250 252 254 256 258 259 261 264 264 261 258 258
348 345 343 339 336 335 333 330 328 328 328 325 319 315 310 303 300 303 303 300 297 293 289 287 285 283 284 284 281 277 275 274 272 271 271 271 271 271 273 273 273 270 269 268 266 265 264 264 262 260 258 256 251 245 240 237 236 236 235 236 237 240 243 246 246 244 241 240 241 242 244 246 248 251 252 253 254 256 258 260 260 257 256 258 261
342 339 336 332 329 327 326 325 325 324 323 320 316 313 309 304 301 301 301 300 298 294 290 288 286 283 284 285 283 279 278 278 277 276 275 274 273 275 276 278 277 275 274 272 270 268 267 266 264 261 257 253 249 246 243 241 239 237 237 238 240 242 243 242 240 240 240 242 243 244 245 247 250 253 254 254 254 255 256 257 256 255 256 258 260
340 336 331 329 327 325 323 324 324 322 319 318 314 310 306 304 301 299 298 300 299 297 294 292 291 290 288 287 286 285 282 280 280 279 277 276 277 279 282 283 281 278 277 276 272 270 268 266 264 261 256 251 248 248 247 244 241 239 240 241 243 243 242 241 240 241 243 244 245 245 246 248 251 253 254 254 253 251 251 252 252 254 255 256 256
336 334 331 328 326 325 323 321 319 316 313 311 307 305 304 303 300 298 300 299 298 297 296 295 294 294 293 292 292 292 288 286 285 283 281 281 282 286 289 289 286 283 281 278 274 272 271 267 264 259 254 250 250 250 248 245 243 242 244 245 246 246 244 242 242 243 243 243 245 245 246 249 251 252 253 254 253 251 250 250 250 250 251 251 254
333 332 330 327 326 324 321 318 316 315 313 312 310 307 306 304 301 298 299 300 297 296 295 295 295 296 295 295 296 296 294 292 290 287 287 290 293 295 297 296 291 287 284 280 276 273 271 266 262 257 253 251 250 249 247 245 245 245 248 249 249 246 244 242 242 242 242 243 245 246 246 248 250 250 251 252 251 249 248 248 246 247 249 252 256
330 329 327 326 326 325 322 322 322 320 318 317 314 308 304 303 302 299 298 298 297 297 296 295 295 295 293 293 294 294 295 296 295 293 294 296 298 299 301 301 296 290 286 280 276 273 271 268 263 259 256 253 251 249 247 246 247 248 250 250 247 244 243 242 242 243 244 244 245 246 246 247 248 249 250 250 248 247 247 246 245 248 251 253 255